This demonstration page uses our WeatherBlox Daily Observations layout. Learn more.

Left ArrowRight Arrow

Hourly Observations for November 30, 2022

Temp ( °F °C ) Dew Point ( °F °C ) Humidity (%) Winds ( mph kmh ) Pressure ( in mb ) Visibility ( mi km ) Precip ( " mm )
12:53 am 00:53 Clear 24 -4.4 12 -11.1 59 59 NW 5 7 30.28 1025 10 16 0.00 0.00
1:53 am 01:53 Clear 20 -6.7 12 -11.1 71 71 W 6 9 30.30 1026 10 16 0.00 0.00
2:53 am 02:53 Clear 21 -6.1 13 -10.6 70 70 NW 6 9 30.33 1027 10 16 0.00 0.00
3:53 am 03:53 Clear 21 -6.1 14 -10 74 74 NW 8 13 30.34 1028 10 16 0.00 0.00
4:53 am 04:53 Clear 21 -6.1 14 -10 74 74 NNW 5 7 30.35 1028 10 16 0.00 0.00
5:53 am 05:53 Clear 20 -6.7 14 -10 77 77 WNW 5 7 30.40 1029 10 16 0.00 0.00
6:53 am 06:53 Clear 20 -6.7 14 -10 77 77 NNW 8 13 30.42 1030 10 16 0.00 0.00
7:53 am 07:53 Sunny 22 -5.6 15 -9.4 74 74 NNW 12 19 30.45 1031 10 16 0.00 0.00
8:53 am 08:53 Sunny 26 -3.3 15 -9.4 63 63 N 7 11 30.48 1032 10 16 0.00 0.00
9:53 am 09:53 Sunny 29 -1.7 14 -10 53 53 VRB 5 7 30.49 1033 10 16 0.00 0.00
10:53 am 10:53 Sunny 32 0 13 -10.6 45 45 VRB 3 6 30.50 1033 10 16 0.00 0.00
11:53 am 11:53 Sunny 35 1.7 13 -10.6 39 39 NW 3 6 30.48 1032 10 16 0.00 0.00
12:53 pm 12:53 Sunny 37 2.8 14 -10 38 38 Calm 30.46 1031 10 16 0.00 0.00
1:53 pm 13:53 Sunny 39 3.9 16 -8.9 39 39 Calm 30.44 1031 10 16 0.00 0.00
2:53 pm 14:53 Sunny 40 4.4 16 -8.9 37 37 W 3 6 30.43 1031 10 16 0.00 0.00
3:53 pm 15:53 Mostly Sunny 39 3.9 17 -8.3 40 40 VRB 3 6 30.42 1030 10 16 0.00 0.00
4:53 pm 16:53 Partly Cloudy 34 1.1 18 -7.8 51 51 S 7 11 30.44 1031 10 16 0.00 0.00
5:53 pm 17:53 Partly Cloudy 30 -1.1 19 -7.2 63 63 SSE 6 9 30.44 1031 10 16 0.00 0.00
6:53 pm 18:53 Clear 28 -2.2 19 -7.2 68 68 S 7 11 30.44 1031 10 16 0.00 0.00
7:53 pm 19:53 Mostly Clear 28 -2.2 19 -7.2 68 68 S 8 13 30.44 1031 10 16 0.00 0.00
8:53 pm 20:53 Mostly Clear 27 -2.8 19 -7.2 72 72 S 8 13 30.44 1031 10 16 0.00 0.00
9:53 pm 21:53 Mostly Clear 28 -2.2 19 -7.2 68 68 S 6 9 30.44 1031 10 16 0.00 0.00
10:53 pm 22:53 Mostly Clear 28 -2.2 20 -6.7 71 71 SSE 7 11 30.41 1030 10 16 0.00 0.00
11:53 pm 23:53 Mostly Clear 27 -2.8 20 -6.7 74 74 SSE 8 13 30.41 1030 10 16 0.00 0.00

Powered by AerisWeather